Zurück zum Katalog

STARLINK-32209

AktivKommunikationVLEO
NORAD 60590·PAYLOAD·🇺🇸 United States

Gestartet Aug 20, 2024 von Cape Canaveral Space Force Station

Loading…

Nächste Überflüge (nächste 24 Stunden)

TLE

AktuellSource: CelesTrak SupGP

Epoche: Sep 15, 2026, 03:17 UTC

1 60590C 24150H   26258.13729167  .00039872  00000+0  11781-2 0  2587
2 60590  53.1565 142.7185 0001141  90.1324  65.6738 15.34368634    10

Verfolge STARLINK-32209 in Echtzeit mit AllMySat

Download on the App Store